When you browse on this site, cookies collect data to enhance your experience and personalize the content and advertising you see.
Visit our Privacy Policy to learn more. By continuing to use the site, you agree to this use of cookies and data.
  • în România
  • Lista ţărilor
  • Pe 7 zile
  • Temperatura apei
  • Hartă satelitară
  • Meteo pe hartă
  • Widget-uri
  • user-avatar
    Intrare

    Meteo pe oră la Gjirokaster

    Astăzi, 20 Mai, Luni

    Timp Temperatura Precipitaţii Vânt Presiune Umiditate
    00:00 +9°C° 0.1 mm 2 m/s 647 mmHg 97%
    01:00 +8°C° 0.1 mm 2 m/s 647 mmHg 97%
    02:00 +8°C° 0.1 mm 2 m/s 647 mmHg 97%
    03:00 +8°C° 0.1 mm 2 m/s 647 mmHg 97%
    04:00 +8°C° 0.1 mm 2 m/s 647 mmHg 96%
    05:00 +8°C° 0 mm 3 m/s 647 mmHg 94%
    06:00 +9°C° 0 mm 3 m/s 647 mmHg 91%
    07:00 +8°C° 0 mm 4 m/s 648 mmHg 88%
    08:00 +10°C° 0.1 mm 4 m/s 648 mmHg 83%
    09:00 +11°C° 0.1 mm 4 m/s 649 mmHg 78%
    10:00 +11°C° 0.1 mm 4 m/s 649 mmHg 72%
    11:00 +11°C° 0.3 mm 4 m/s 649 mmHg 72%
    12:00 +11°C° 0.3 mm 3 m/s 650 mmHg 72%
    13:00 +11°C° 0.3 mm 3 m/s 650 mmHg 72%
    14:00 +11°C° 0.5 mm 3 m/s 649 mmHg 72%
    15:00 +11°C° 0.5 mm 3 m/s 649 mmHg 73%
    16:00 +11°C° 0.5 mm 3 m/s 649 mmHg 74%
    17:00 +10°C° 0.3 mm 3 m/s 649 mmHg 80%
    18:00 +9°C° 0.3 mm 2 m/s 649 mmHg 86%
    19:00 +7°C° 0.3 mm 2 m/s 648 mmHg 92%
    20:00 +7°C° 0.1 mm 2 m/s 649 mmHg 93%
    21:00 +7°C° 0.1 mm 2 m/s 649 mmHg 94%
    22:00 +6°C° 0.1 mm 2 m/s 649 mmHg 95%
    23:00 +6°C° 0 mm 2 m/s 649 mmHg 95%

    Mâine, 21 Mai, Marţi

    Timp Temperatura Precipitaţii Vânt Presiune Umiditate
    00:00 +6°C° 0 mm 2 m/s 649 mmHg 95%
    01:00 +5°C° 0 mm 2 m/s 649 mmHg 95%
    02:00 +5°C° 0 mm 2 m/s 649 mmHg 94%
    03:00 +5°C° 0 mm 2 m/s 649 mmHg 94%
    04:00 +5°C° 0 mm 2 m/s 649 mmHg 93%
    05:00 +6°C° 0 mm 2 m/s 649 mmHg 88%
    06:00 +7°C° 0 mm 2 m/s 650 mmHg 83%
    07:00 +9°C° 0 mm 2 m/s 650 mmHg 77%
    08:00 +10°C° 0 mm 2 m/s 651 mmHg 72%
    09:00 +12°C° 0 mm 2 m/s 651 mmHg 66%
    10:00 +12°C° 0 mm 3 m/s 652 mmHg 61%
    11:00 +12°C° 0 mm 3 m/s 652 mmHg 60%
    12:00 +13°C° 0 mm 3 m/s 652 mmHg 59%
    13:00 +13°C° 0 mm 3 m/s 652 mmHg 58%
    14:00 +13°C° 0 mm 3 m/s 652 mmHg 60%
    15:00 +12°C° 0 mm 3 m/s 652 mmHg 62%
    16:00 +13°C° 0 mm 2 m/s 652 mmHg 65%
    17:00 +12°C° 0 mm 2 m/s 652 mmHg 71%
    18:00 +10°C° 0 mm 1 m/s 652 mmHg 78%
    19:00 +8°C° 0 mm 1 m/s 651 mmHg 84%
    20:00 +8°C° 0 mm 1 m/s 651 mmHg 85%
    21:00 +7°C° 0 mm 1 m/s 652 mmHg 87%
    22:00 +7°C° 0 mm 1 m/s 652 mmHg 88%
    23:00 +7°C° 0 mm 1 m/s 652 mmHg 88%

    Poimâine, 22 Mai, Miercuri

    Timp Temperatura Precipitaţii Vânt Presiune Umiditate
    00:00 +6°C° 0 mm 1 m/s 652 mmHg 88%
    01:00 +6°C° 0 mm 1 m/s 651 mmHg 89%
    02:00 +6°C° 0 mm 1 m/s 651 mmHg 88%
    03:00 +6°C° 0 mm 1 m/s 651 mmHg 88%
    04:00 +6°C° 0 mm 1 m/s 651 mmHg 88%
    05:00 +7°C° 0 mm 1 m/s 651 mmHg 81%
    06:00 +9°C° 0 mm 1 m/s 652 mmHg 75%
    07:00 +10°C° 0 mm 1 m/s 652 mmHg 68%
    08:00 +12°C° 0 mm 1 m/s 653 mmHg 63%
    09:00 +13°C° 0 mm 1 m/s 653 mmHg 58%
    10:00 +15°C° 0 mm 1 m/s 654 mmHg 52%
    11:00 +15°C° 0 mm 1 m/s 654 mmHg 53%
    12:00 +15°C° 0 mm 2 m/s 654 mmHg 54%
    13:00 +16°C° 0 mm 2 m/s 654 mmHg 55%
    14:00 +15°C° 0 mm 2 m/s 653 mmHg 58%
    15:00 +15°C° 0 mm 2 m/s 653 mmHg 62%
    16:00 +15°C° 0 mm 2 m/s 653 mmHg 65%
    17:00 +13°C° 0 mm 1 m/s 652 mmHg 72%
    18:00 +12°C° 0 mm 1 m/s 652 mmHg 79%
    19:00 +10°C° 0 mm 1 m/s 652 mmHg 86%
    20:00 +10°C° 0 mm 1 m/s 652 mmHg 87%
    21:00 +9°C° 0 mm 1 m/s 652 mmHg 89%
    22:00 +8°C° 0 mm 1 m/s 652 mmHg 90%
    23:00 +8°C° 0 mm 1 m/s 651 mmHg 90%

    23 Mai, Joi

    Timp Temperatura Precipitaţii Vânt Presiune Umiditate
    00:00 +8°C° 0 mm 1 m/s 651 mmHg 90%
    01:00 +8°C° 0 mm 1 m/s 651 mmHg 90%
    02:00 +7°C° 0 mm 1 m/s 650 mmHg 88%
    03:00 +7°C° 0 mm 1 m/s 650 mmHg 86%
    04:00 +7°C° 0 mm 1 m/s 650 mmHg 85%
    05:00 +8°C° 0 mm 1 m/s 650 mmHg 77%
    06:00 +10°C° 0 mm 1 m/s 651 mmHg 68%
    07:00 +12°C° 0 mm 1 m/s 651 mmHg 60%
    08:00 +13°C° 0 mm 2 m/s 652 mmHg 56%
    09:00 +14°C° 0 mm 2 m/s 652 mmHg 52%
    10:00 +16°C° 0 mm 2 m/s 652 mmHg 47%
    11:00 +16°C° 0 mm 2 m/s 652 mmHg 47%
    12:00 +17°C° 0 mm 3 m/s 652 mmHg 48%
    13:00 +17°C° 0 mm 3 m/s 652 mmHg 48%
    14:00 +17°C° 0 mm 3 m/s 651 mmHg 52%
    15:00 +15°C° 0 mm 4 m/s 651 mmHg 57%
    16:00 +15°C° 0 mm 4 m/s 650 mmHg 61%
    17:00 +13°C° 0.1 mm 4 m/s 650 mmHg 67%
    18:00 +12°C° 0.1 mm 4 m/s 649 mmHg 73%
    19:00 +10°C° 0.1 mm 3 m/s 649 mmHg 79%
    20:00 +10°C° 0.1 mm 3 m/s 649 mmHg 80%
    21:00 +9°C° 0.1 mm 3 m/s 649 mmHg 81%
    22:00 +9°C° 0.1 mm 2 m/s 649 mmHg 82%
    23:00 +8°C° 0 mm 2 m/s 649 mmHg 82%

    24 Mai, Vineri

    Timp Temperatura Precipitaţii Vânt Presiune Umiditate
    00:00 +8°C° 0 mm 2 m/s 648 mmHg 82%
    01:00 +7°C° 0 mm 2 m/s 648 mmHg 81%
    02:00 +7°C° 0 mm 2 m/s 648 mmHg 82%
    03:00 +7°C° 0 mm 2 m/s 648 mmHg 82%
    04:00 +6°C° 0 mm 2 m/s 647 mmHg 83%
    05:00 +8°C° 0 mm 2 m/s 648 mmHg 79%
    06:00 +9°C° 0 mm 2 m/s 648 mmHg 75%
    07:00 +12°C° 0 mm 2 m/s 649 mmHg 71%
    08:00 +13°C° 0.2 mm 2 m/s 649 mmHg 67%
    09:00 +14°C° 0.2 mm 2 m/s 649 mmHg 64%
    10:00 +16°C° 0.2 mm 3 m/s 650 mmHg 60%
    11:00 +16°C° 1.6 mm 3 m/s 649 mmHg 63%
    12:00 +16°C° 1.6 mm 3 m/s 649 mmHg 65%
    13:00 +16°C° 1.6 mm 3 m/s 649 mmHg 67%
    14:00 +14°C° 0.9 mm 3 m/s 649 mmHg 69%
    15:00 +14°C° 0.9 mm 3 m/s 648 mmHg 71%
    16:00 +14°C° 0.9 mm 3 m/s 648 mmHg 73%
    17:00 +12°C° 0.3 mm 3 m/s 648 mmHg 78%
    18:00 +12°C° 0.3 mm 2 m/s 647 mmHg 83%
    19:00 +10°C° 0.3 mm 2 m/s 647 mmHg 89%
    20:00 +10°C° 0 mm 1 m/s 647 mmHg 90%
    21:00 +9°C° 0 mm 1 m/s 647 mmHg 91%
    22:00 +7°C° 0 mm 0 m/s 647 mmHg 92%
    23:00 +7°C° 0 mm 0 m/s 647 mmHg 93%

    25 Mai, Sâmbătă

    Timp Temperatura Precipitaţii Vânt Presiune Umiditate
    00:00 +8°C° 0 mm 1 m/s 647 mmHg 94%
    01:00 +8°C° 0 mm 1 m/s 647 mmHg 95%
    02:00 +8°C° 0 mm 1 m/s 647 mmHg 95%
    03:00 +7°C° 0 mm 2 m/s 647 mmHg 96%
    04:00 +7°C° 0 mm 2 m/s 647 mmHg 96%
    05:00 +8°C° 0 mm 2 m/s 647 mmHg 91%
    06:00 +9°C° 0 mm 2 m/s 647 mmHg 86%
    07:00 +10°C° 0 mm 2 m/s 648 mmHg 81%
    08:00 +12°C° 0 mm 2 m/s 648 mmHg 76%
    09:00 +12°C° 0 mm 3 m/s 649 mmHg 70%
    10:00 +14°C° 0 mm 3 m/s 649 mmHg 65%
    11:00 +14°C° 0.3 mm 3 m/s 649 mmHg 65%
    12:00 +14°C° 0.3 mm 3 m/s 649 mmHg 66%
    13:00 +16°C° 0.3 mm 3 m/s 649 mmHg 66%
    14:00 +14°C° 0.3 mm 3 m/s 648 mmHg 67%
    15:00 +14°C° 0.3 mm 3 m/s 648 mmHg 67%
    16:00 +14°C° 0.3 mm 3 m/s 648 mmHg 68%
    17:00 +12°C° 0 mm 3 m/s 647 mmHg 75%
    18:00 +11°C° 0 mm 3 m/s 647 mmHg 81%
    19:00 +9°C° 0 mm 2 m/s 646 mmHg 88%
    20:00 +9°C° 0 mm 2 m/s 646 mmHg 90%
    21:00 +8°C° 0 mm 2 m/s 646 mmHg 91%
    22:00 +8°C° 0 mm 3 m/s 646 mmHg 93%
    23:00 +8°C° 0 mm 3 m/s 646 mmHg 94%
    Arată mai mult